www.pogodaiklimat.ru

Погода и климат >> Архив погоды >> Эквадор >> Milagro


ПОГОДА в Milagro

  • Прогноз погоды в Milagro
  • Монитор погоды в Milagro
  • Климат города

АРХИВ ПОГОДЫ в Milagro

Время (UTC), дата Ветер
(напр.,м/с)
 
Видим.   Явления Облачность Т
(С)
Тd
(С)
f
(%)
Тe
(С)
Тes
(С)
Комфортность P
(гПа)
Po
(гПа)
Тmin
(С)
Tmax
(С)
R
(мм)
R24
(мм)
S
(см)
00 18.05 Ю 6 5000 м осадки на расстоянии {туман} 9/8 300 м
[Cb calv Ac trans]
+28.6 +25.1 81 +41 +41 опасность
перегрева
1007.3 1007.3 +32.4
12 18.05 штиль 0 3000 м гроза, ливневой дождь 10/6 300 м
[Cb cap As op]
+24.2 +23.8 98 +33 +33 очень
душно
1009.2 1009.2 +24.2 +32.4 16
15 18.05 ЮЗ 4 3000 м слабый ливневой дождь, в посл. час гроза 10/5 300 м
[Frnb As op]
+24.9 +24.2 96 +34 +35 очень
душно
1009.9 1009.9
21 18.05 ЮЗ 4 15 км в посл. час морось 9/5 300 м
[Sc diur, vesp As op]
+28.2 +24.8 82 +40 +41 очень
душно
1005.9 1005.9 +28.6
12 19.05 штиль 0 5000 м мгла {туман} 10/6 300 м
[St As trans]
+24.8 +22.9 89 +33 +33 очень
душно
1007.6 1007.6 +24.3 +29.0 11
15 19.05 Ю 4 8000 м мгла {туман} 10/5 300 м
[St As trans]
+26.9 +24.0 84 +37 +39 очень
душно
1008.5 1008.5
18 19.05 Ю 6 15 км мгла {туман} 9/5 300 м
[Cu hum Ac As]
+28.0 +24.2 80 +39 +41 очень
душно
1006.2 1006.2
21 19.05 ЮЗ 6 15 км осадки на расстоянии {туман} 10/6 300 м
[Cb calv As trans]
+29.2 +24.6 76 +41 +42 опасность
перегрева
1003.7 1003.7 +29.6
00 20.05 Ю 4 5000 м осадки на расстоянии {туман} 10/6 300 м
[St As trans]
+28.0 +24.8 83 +40 +40 очень
душно
1005.1 1005.1 +29.6
12 20.05 штиль 0 10 км мгла {туман} 10/3 600 м
[Sc As trans]
+24.4 +24.4 100 +34 +34 очень
душно
1007.5 1023.3 +24.4 +29.6 0.2
15 20.05 ЮЗ 4 10 км мгла {туман} 8/5 300 м
[Sc Ac und]
+27.2 +23.9 82 +37 +40 очень
душно
1008.3 1008.3
18 20.05 СЗ 8 15 км мгла {туман} 6/3 300 м
[Sc Ac und]
+29.9 +24.9 75 +43 +45 опасность
перегрева
1006.4 1006.4
21 20.05 СВ 4 15 км мгла {туман} 9/3 300 м
[Cu med, cong Ac As]
+29.6 +24.8 75 +42 +43 опасность
перегрева
1004.9 1004.9 +30.4
12 21.05 штиль 0 15 км мгла {туман} 8/5 300 м
[Sc Ac und]
+23.6 +23.1 97 +31 +32 очень
душно
1010.5 1010.5 +22.6 +30.6 24
18 21.05 СЗ 8 20 км мгла {туман} 6/6 300 м
[Sc diur, vesp]
+29.2 +25.5 80 +43 +44 опасность
перегрева
1009.0 1009.0
21 21.05 СЗ 4 20 км мгла {туман} 9/3 200 м
[Cb calv Ac As]
+30.2 +24.5 72 +43 +44 опасность
перегрева
1006.7 1006.7 +31.0
00 22.05 штиль 0 3000 м мгла {туман} 8/6 600 м
[Cb calv Ac und]
+28.0 +25.9 88 +42 +42 опасность
перегрева
1008.0 1008.0 +31.0
12 22.05 штиль 0 3000 м слабая морось {дождь} 10/5 300 м
[Frnb As op]
+23.4 +22.9 97 +33 +33 очень
душно
1012.1 1012.1 +23.3 +31.0 16
15 22.05 Ю 2 10 км в посл. час морось 10/6 300 м
[St As trans]
+25.6 +23.4 88 +35 +37 очень
душно
1012.7 1012.7
21 22.05 ЮЗ 4 15 км мгла {туман} 9/5 600 м
[Cu med, cong Ac As]
+28.8 +24.8 79 +41 +42 опасность
перегрева
1008.5 1008.5 +29.4
12 23.05 штиль 0 8000 м мгла {туман} 9/6 300 м
[St Ac trans]
+24.6 +23.1 91 +33 +33 очень
душно
1009.7 1009.7 +23.9 +29.4 2
15 23.05 ЮЗ 4 15 км мгла {туман} 9/9 300 м
[Sc Ac trans]
+27.4 +24.4 84 +39 +39 очень
душно
1010.7 1010.7
18 23.05 СВ 2 15 км мгла {туман} 9/8 600 м
[Sc Ac trans]
+29.2 +24.2 74 +41 +43 опасность
перегрева
1008.1 1008.1
21 23.05 ЮЗ 2 15 км мгла {туман} 9/9 300 м
[Cu med, cong Ac trans]
+29.4 +24.8 76 +42 +42 опасность
перегрева
1006.2 1006.2 +29.8
00 24.05 штиль 0 10 км мгла {туман} 4/4 300 м
[Sc diur, vesp]
+28.2 +25.1 83 +41 +41 опасность
перегрева
1007.1 1007.1 +30.2
12 24.05 ЮЗ 4 5000 м мгла {туман} 10/10 300 м
[St]
+23.8 +22.3 91 +31 +31 очень
душно
1009.4 1009.4 +23.3 +30.2
15 24.05 ЮЗ 4 15 км мгла {туман} 9/4 300 м
[St Ac As]
+27.7 +22.3 72 +36 +38 очень
душно
1010.4 1010.4
18 24.05 ЮВ 6 15 км мгла {туман} 10/4 300 м
[Sc Ac As]
+27.9 +24.0 79 +39 +40 очень
душно
1009.3 1009.3

 

Местоположение метеостанции Milagro (Эквадор): широта -2.12 долгота -79.60 высота над уровнем моря 13 м.

В архиве по умолчанию представлена погода в Milagro за последнюю неделю. Архивные данные за месяц целиком и за предыдущие месяцы, начиная с января 2011 года, Вы можете получить, выбрав интересующий диапазон дат из раскрывающегося списка и нажав кнопку "Ввод!".

Внимание! Время в таблицах - всемирное. Для получения местного времени необходимо прибавить поправку, которая в Milagro равна -5 ч.

Смотрите также архив погоды в соседних городах и на ближайших метеорологических станциях:

Погода в Guayaquil (Эквадор) (31 км)
Погода в Guayaquil Aeropuerto (Эквадор) (31 км)
Погода в Canar (Эквадор) (88 км)
Погода в Cuenca (Эквадор) (109 км)
Погода в Pichilingue (Эквадор) (115 км)
Погода в Riobamba (Эквадор) (117 км)
Погода в Corazon (Эквадор) (124 км)
Погода в Machala (Эквадор) (132 км)
Погода в Querochaca (Эквадор) (139 км)
Погода в Santa Rosa (Эквадор) (152 км)

Пояснения к столбцам:

Ветер - указаны скорость ветра в м/с - средняя за 10 мин, порывы в срок и между сроками (в фигурных скобках) и направление, откуда дует ветер: С - северный, СВ - северо-восточный, В - восточный, ЮВ - юго-восточный, Ю - южный, ЮЗ - юго-западный, З - западный, СЗ - северо-западный.
Видимость - горизонтальная дальность видимости в метрах или километрах. При видимости от 1 до 10 км при отсутствии осадков обычно наблюдается дымка, при ухудшении видимости до 1 км и менее - туман. В сухую погоду видимость может ухудшаться дымом, пылью или мглою.
Явления - указаны атмосферные явления, наблюдавшиеся в срок или в последний час перед сроком; фигурными скобками обозначены явления, наблюдавшиеся между сроками (за 1-3 часа до срока); квадратными скобками обозначены град или гололедные отложения с указанием их диаметра в мм.
Облачность - указаны через наклонную черту общая и нижняя облачность в баллах и высота нижней границы облаков в метрах; квадратными скобками обозначены формы облаков: Ci - перистые, Cs - перисто-слоистые, Cc - перисто-кучевые, Ac - высококучевые, As - высокослоистые, Sc - слоисто-кучевые, Ns - слоисто-дождевые, Cu - кучевые, Cb - кучево-дождевые. Подробнее классификацию облаков см. в Атласе облаков (PDF).
T - Температура воздуха - температура, измеренная на высоте 2 м над землей.
Td - Температура точки росы - температура, при понижении до которой содержащийся в воздухе водяной пар достигнет насыщения.
f - Относительная влажность воздуха - влажноcть воздуха, измеренная на высоте 2 м над землей.
Te - Эффективная температура - температура, которую ощущает одетый по сезону человек в тени. Характеристика душности погоды. При расчете учитывается влияние влажности воздуха и скорости ветра на теплоощущения человека.
Tes - Эффективная температура на солнце - температура, которую ощущает человек, с поправкой на солнечный нагрев. Характеристика знойности погоды. Зависит от высоты солнца над горизонтом, облачности и скорости ветра. Ночью, в пасмурную погоду, а также при ветре 12 м/с и более поправка равна нулю.
P - Атмосферное давление - приведенное к уровню моря атмосферное давление.
Po - Атмосферное давление - измеренное на уровне метеостанции атмосферное давление.
Tmin - Минимальная температура - минимум температуры воздуха на высоте 2 м над землей.
Tmax - Максимальная температура - максимум температуры воздуха на высоте 2 м над землей.
R - Количество осадков - Количество выпавших осадков за период времени, мм. При наведении курсора мыши на число - период времени, за который выпало указанное количество осадков.
R24 - Количество осадков - Количество выпавших осадков за 24 часа, мм.
S - Снежный покров - Высота снежного покрова, см. При наведении курсора мыши на число - состояние снежного покрова и степень покрытия местности в баллах.